Flag for Germany Weather past 2 weeks in Werl, North Rhine-Westphalia, Germany

Now
41 °F

Passing clouds.


Feels Like: 32 °F
Forecast: 36 / 43 °F
Wind: 21 mph from Southwest

Location: Dortmund / Wickede

Current Time: Dec 20, 2014 at 6:32:26 AM

Latest Report: Dec 20, 2014 at 5:50 AM


Visibility: N/A

Pressure: 30.09 "Hg

Humidity: 81%

Dew point: 36 °F

Location of WerlLocation

Historic Weather in Werl — Graph

°F

Werl temperature yesterday

Maximum temperature yesterday: 52 °F (at 5:20 AM)
Minimum temperature yesterday: 41 °F (at 8:50 PM)
Average temperature yesterday: 47 °F

Past Weeks' High & Low Weather Summary

 TemperatureHumidityPressure
High54 °F (Dec 18, 5:20 PM)93% (Dec 6, 5:50 AM)30.36 "Hg (Dec 6, 5:50 AM)
Low32 °F (Dec 14, 10:50 PM)57% (Dec 7, 2:20 PM)29.39 "Hg (Dec 12, 12:50 PM)
Average41 °F82%29.92 "Hg
* Reported Dec 5 5:20 AM — Dec 20 5:20 AM, Werl, Weather by CustomWeather, © 2014

Note: Actual official high and low records may vary slightly from our data, if they occured in-between our weather recording intervals... More about our weather records

Advertising

Werl weather history for previous 24 hours

 ConditionsComfort  
Time TempWeatherWind HumidityBarometerVisibility
5:20 AM
Dec 20
41 °FPassing clouds.18 mph76%30.09 "HgN/A
10:50 PM
Dec 19
41 °FPassing clouds.15 mph81%30.04 "HgN/A
10:20 PM41 °FPassing clouds.15 mph81%30.04 "HgN/A
9:50 PM41 °FPassing clouds.15 mph81%30.04 "HgN/A
9:20 PM41 °FPassing clouds.14 mph81%30.04 "HgN/A
8:50 PM41 °FPassing clouds.15 mph81%30.01 "HgN/A
8:20 PM43 °FPassing clouds.14 mph76%30.01 "HgN/A
7:50 PM43 °FPartly cloudy.14 mph76%30.01 "HgN/A
7:20 PM43 °FPassing clouds.14 mph76%29.98 "HgN/A
6:50 PM43 °FPassing clouds.12 mph76%29.95 "HgN/A
6:20 PM43 °FPassing clouds.15 mph76%29.95 "HgN/A
5:50 PM45 °FPassing clouds.13 mph76%29.92 "HgN/A
5:20 PM45 °FPassing clouds.10 mph76%29.92 "HgN/A
4:50 PM45 °FPassing clouds.9 mph76%29.92 "HgN/A
4:20 PM45 °FScattered clouds.9 mph76%29.89 "HgN/A
3:50 PM46 °FPartly sunny.10 mph76%29.89 "HgN/A
3:20 PM46 °FLight rain. Partly sunny.9 mph76%29.86 "HgN/A
2:50 PM46 °FLight rain. Partly sunny.9 mph87%29.83 "HgN/A
2:20 PM48 °FLight rain. Partly sunny.9 mph87%29.83 "HgN/A
1:50 PM50 °FLight rain. Partly sunny.9 mph88%29.83 "HgN/A
1:20 PM50 °FLight rain. Partly sunny.22 mph88%29.77 "Hg4 mi
12:50 PM52 °FLight rain. Partly sunny.24 mph82%29.77 "Hg5 mi
12:20 PM52 °FLight rain. Partly sunny.25 mph82%29.77 "HgN/A
11:50 AM52 °FLight rain. Partly sunny.24 mph82%29.77 "Hg6 mi
11:20 AM50 °FLight rain. Partly sunny.26 mph88%29.77 "Hg5 mi
10:50 AM52 °FLight rain. Partly sunny.26 mph82%29.77 "Hg5 mi
10:20 AM50 °FLight rain. Partly sunny.25 mph88%29.77 "HgN/A
9:50 AM50 °FLight rain. Partly sunny.24 mph88%29.77 "Hg5 mi
9:20 AM50 °FDrizzle. Partly sunny.26 mph88%29.77 "Hg4 mi
8:50 AM50 °FLight rain. Partly sunny.24 mph88%29.77 "Hg6 mi
8:20 AM52 °FLight rain. Passing clouds.24 mph82%29.77 "Hg4 mi
7:50 AM52 °FPassing clouds.24 mph82%29.80 "HgN/A
7:20 AM52 °FPassing clouds.25 mph82%29.80 "HgN/A
6:50 AM52 °FPassing clouds.24 mph82%29.80 "HgN/A
6:20 AM50 °FPassing clouds.24 mph88%29.80 "HgN/A
Weather by CustomWeather, © 2014

See weather overviewHow to use our weather pages